Previsão horária em Aljojuca

Hoje, 21 Janeiro, Quinta-feira

Tempo Temperatura Precipitação Vento Pressão Humidade
00:00 +8°C° 0 mm 2 m/s 562 mmHg 87%
01:00 +9°C° 0 mm 1 m/s 561 mmHg 86%
02:00 +9°C° 0 mm 1 m/s 561 mmHg 85%
03:00 +8°C° 0 mm 1 m/s 560 mmHg 84%
04:00 +8°C° 0 mm 1 m/s 560 mmHg 83%
05:00 +7°C° 0 mm 1 m/s 560 mmHg 82%
06:00 +9°C° 0 mm 1 m/s 561 mmHg 73%
07:00 +11°C° 0 mm 1 m/s 562 mmHg 65%
08:00 +12°C° 0 mm 0 m/s 563 mmHg 56%
09:00 +15°C° 0 mm 1 m/s 564 mmHg 50%
10:00 +18°C° 0 mm 1 m/s 565 mmHg 45%
11:00 +20°C° 0 mm 1 m/s 565 mmHg 39%
12:00 +19°C° 0 mm 2 m/s 565 mmHg 37%
13:00 +20°C° 0 mm 2 m/s 564 mmHg 35%
14:00 +21°C° 0 mm 2 m/s 564 mmHg 33%
15:00 +19°C° 0 mm 3 m/s 563 mmHg 40%
16:00 +18°C° 0 mm 3 m/s 562 mmHg 47%
17:00 +16°C° 0 mm 3 m/s 561 mmHg 54%
18:00 +15°C° 0 mm 2 m/s 561 mmHg 60%
19:00 +14°C° 0 mm 2 m/s 561 mmHg 66%
20:00 +12°C° 0 mm 1 m/s 560 mmHg 73%
21:00 +12°C° 0 mm 1 m/s 560 mmHg 75%
22:00 +11°C° 0 mm 1 m/s 559 mmHg 77%
23:00 +11°C° 0 mm 1 m/s 559 mmHg 79%

Amanhã, 22 Janeiro, Sexta-feira

Tempo Temperatura Precipitação Vento Pressão Humidade
00:00 +10°C° 0 mm 1 m/s 559 mmHg 77%
01:00 +10°C° 0 mm 1 m/s 558 mmHg 75%
02:00 +10°C° 0 mm 1 m/s 558 mmHg 73%
03:00 +10°C° 0 mm 1 m/s 558 mmHg 72%
04:00 +9°C° 0 mm 1 m/s 558 mmHg 70%
05:00 +9°C° 0 mm 1 m/s 558 mmHg 69%
06:00 +11°C° 0 mm 1 m/s 559 mmHg 62%
07:00 +13°C° 0 mm 1 m/s 561 mmHg 55%
08:00 +15°C° 0 mm 1 m/s 562 mmHg 48%
09:00 +17°C° 0 mm 2 m/s 563 mmHg 43%
10:00 +19°C° 0 mm 2 m/s 563 mmHg 38%
11:00 +20°C° 0 mm 3 m/s 564 mmHg 33%
12:00 +21°C° 0 mm 2 m/s 564 mmHg 32%
13:00 +21°C° 0 mm 2 m/s 563 mmHg 31%
14:00 +23°C° 0 mm 2 m/s 563 mmHg 30%
15:00 +20°C° 0 mm 2 m/s 562 mmHg 37%
16:00 +19°C° 0 mm 2 m/s 561 mmHg 45%
17:00 +17°C° 0 mm 3 m/s 561 mmHg 52%
18:00 +16°C° 0 mm 2 m/s 561 mmHg 56%
19:00 +15°C° 0 mm 1 m/s 561 mmHg 60%
20:00 +14°C° 0 mm 1 m/s 561 mmHg 64%
21:00 +13°C° 0 mm 1 m/s 560 mmHg 65%
22:00 +12°C° 0 mm 1 m/s 560 mmHg 67%
23:00 +11°C° 0 mm 0 m/s 559 mmHg 68%

Depois de amanhã, 23 Janeiro, Sábado

Tempo Temperatura Precipitação Vento Pressão Humidade
00:00 +10°C° 0 mm 0 m/s 559 mmHg 68%
01:00 +10°C° 0 mm 0 m/s 559 mmHg 68%
02:00 +9°C° 0 mm 0 m/s 558 mmHg 68%
03:00 +9°C° 0 mm 0 m/s 558 mmHg 69%
04:00 +9°C° 0 mm 0 m/s 558 mmHg 69%
05:00 +8°C° 0 mm 0 m/s 558 mmHg 70%
06:00 +10°C° 0 mm 0 m/s 560 mmHg 63%
07:00 +12°C° 0 mm 0 m/s 561 mmHg 56%
08:00 +14°C° 0 mm 0 m/s 562 mmHg 49%
09:00 +16°C° 0 mm 0 m/s 563 mmHg 43%
10:00 +20°C° 0 mm 1 m/s 563 mmHg 38%
11:00 +21°C° 0 mm 1 m/s 564 mmHg 32%
12:00 +22°C° 0 mm 1 m/s 563 mmHg 31%
13:00 +21°C° 0 mm 2 m/s 563 mmHg 29%
14:00 +21°C° 0 mm 2 m/s 563 mmHg 28%
15:00 +20°C° 0 mm 2 m/s 562 mmHg 37%
16:00 +18°C° 0 mm 2 m/s 561 mmHg 46%
17:00 +17°C° 0 mm 2 m/s 560 mmHg 55%
18:00 +16°C° 0 mm 2 m/s 560 mmHg 58%
19:00 +14°C° 0 mm 1 m/s 560 mmHg 61%
20:00 +12°C° 0 mm 0 m/s 560 mmHg 63%
21:00 +12°C° 0 mm 0 m/s 560 mmHg 62%
22:00 +12°C° 0 mm 0 m/s 559 mmHg 60%
23:00 +11°C° 0 mm 0 m/s 559 mmHg 58%

24 Janeiro, Domingo

Tempo Temperatura Precipitação Vento Pressão Humidade
00:00 +11°C° 0 mm 0 m/s 559 mmHg 57%
01:00 +11°C° 0 mm 0 m/s 558 mmHg 56%
02:00 +10°C° 0 mm 0 m/s 558 mmHg 55%
03:00 +10°C° 0 mm 0 m/s 558 mmHg 55%
04:00 +11°C° 0 mm 1 m/s 558 mmHg 54%
05:00 +11°C° 0 mm 1 m/s 558 mmHg 54%
06:00 +12°C° 0 mm 1 m/s 559 mmHg 51%
07:00 +14°C° 0 mm 1 m/s 560 mmHg 48%
08:00 +15°C° 0 mm 1 m/s 561 mmHg 45%
09:00 +18°C° 0 mm 1 m/s 562 mmHg 41%
10:00 +18°C° 0 mm 2 m/s 562 mmHg 37%
11:00 +19°C° 0 mm 2 m/s 562 mmHg 32%
12:00 +20°C° 0 mm 3 m/s 562 mmHg 31%
13:00 +21°C° 0 mm 3 m/s 562 mmHg 29%
14:00 +21°C° 0 mm 4 m/s 562 mmHg 27%
15:00 +20°C° 0 mm 4 m/s 561 mmHg 34%
16:00 +18°C° 0 mm 4 m/s 560 mmHg 42%
17:00 +17°C° 0 mm 4 m/s 559 mmHg 49%
18:00 +14°C° 0 mm 3 m/s 559 mmHg 53%
19:00 +14°C° 0 mm 2 m/s 559 mmHg 57%
20:00 +13°C° 0 mm 1 m/s 559 mmHg 61%
21:00 +13°C° 0 mm 2 m/s 558 mmHg 63%
22:00 +12°C° 0 mm 2 m/s 558 mmHg 65%
23:00 +12°C° 0 mm 2 m/s 558 mmHg 66%

25 Janeiro, Segunda-feira

Tempo Temperatura Precipitação Vento Pressão Humidade
00:00 +10°C° 0 mm 2 m/s 557 mmHg 72%
01:00 +10°C° 0 mm 2 m/s 557 mmHg 78%
02:00 +9°C° 0 mm 2 m/s 557 mmHg 83%
03:00 +10°C° 0 mm 1 m/s 556 mmHg 84%
04:00 +9°C° 0 mm 1 m/s 556 mmHg 84%
05:00 +9°C° 0 mm 1 m/s 556 mmHg 85%
06:00 +11°C° 0 mm 1 m/s 557 mmHg 78%
07:00 +12°C° 0 mm 1 m/s 558 mmHg 71%
08:00 +14°C° 0 mm 1 m/s 560 mmHg 63%
09:00 +16°C° 0 mm 1 m/s 560 mmHg 55%
10:00 +17°C° 0 mm 2 m/s 561 mmHg 46%
11:00 +19°C° 0 mm 3 m/s 561 mmHg 38%
12:00 +19°C° 0 mm 3 m/s 561 mmHg 37%
13:00 +20°C° 0 mm 3 m/s 561 mmHg 37%
14:00 +20°C° 0 mm 4 m/s 560 mmHg 36%
15:00 +19°C° 0 mm 4 m/s 560 mmHg 42%
16:00 +18°C° 0 mm 4 m/s 559 mmHg 48%
17:00 +15°C° 0 mm 4 m/s 558 mmHg 53%
18:00 +14°C° 0 mm 3 m/s 558 mmHg 57%
19:00 +14°C° 0 mm 2 m/s 558 mmHg 60%
20:00 +13°C° 0 mm 1 m/s 558 mmHg 63%
21:00 +13°C° 0 mm 1 m/s 558 mmHg 64%
22:00 +12°C° 0 mm 1 m/s 558 mmHg 65%
23:00 +12°C° 0 mm 1 m/s 557 mmHg 66%

26 Janeiro, Terça-feira

Tempo Temperatura Precipitação Vento Pressão Humidade
00:00 +11°C° 0 mm 1 m/s 557 mmHg 66%
01:00 +11°C° 0 mm 1 m/s 557 mmHg 67%
02:00 +11°C° 0 mm 1 m/s 557 mmHg 68%
03:00 +10°C° 0 mm 1 m/s 557 mmHg 70%
04:00 +10°C° 0 mm 1 m/s 556 mmHg 73%
05:00 +9°C° 0 mm 1 m/s 556 mmHg 75%
06:00 +11°C° 0 mm 1 m/s 557 mmHg 69%
07:00 +11°C° 0 mm 0 m/s 559 mmHg 64%
08:00 +13°C° 0 mm 0 m/s 560 mmHg 58%
09:00 +15°C° 0 mm 1 m/s 560 mmHg 53%
10:00 +17°C° 0 mm 2 m/s 561 mmHg 48%
11:00 +19°C° 0 mm 2 m/s 562 mmHg 43%
12:00 +19°C° 0 mm 3 m/s 561 mmHg 42%
13:00 +20°C° 0 mm 4 m/s 561 mmHg 41%
14:00 +20°C° 0 mm 4 m/s 561 mmHg 40%
15:00 +19°C° 0 mm 4 m/s 560 mmHg 45%
16:00 +18°C° 0 mm 4 m/s 559 mmHg 50%
17:00 +16°C° 0 mm 3 m/s 559 mmHg 55%
18:00 +14°C° 0 mm 3 m/s 559 mmHg 59%
19:00 +14°C° 0 mm 2 m/s 559 mmHg 63%
20:00 +13°C° 0 mm 1 m/s 559 mmHg 66%
21:00 +12°C° 0 mm 1 m/s 558 mmHg 68%
22:00 +12°C° 0 mm 1 m/s 558 mmHg 69%
23:00 +11°C° 0 mm 1 m/s 558 mmHg 70%
Mostrar mais

Necessitamos do seu Consentimento

A Meteoprog e os seus Fornecedores de Serviços podem armazenar e aceder a dados pessoais como cookies, identificadores do dispositivo ou outras tecnologias semelhantes existentes no seu dispositivo e processar estes dados para personalizar conteúdos e anúncios, assim como funcionalidades nas redes sociais e análise de tráfego.

  • Armazenar e/ou aceder a informações no seu dispositivo

    Os cookies, identificadores do dispositivo ou outras informações podem ser armazenados ou acedidos no seu dispositivo, para os fins acima indicados.

  • Anúncios e conteúdos personalizados, medição de anúncios e conteúdos, dados sobre o público-alvo e desenvolvimento de produtos

    Os anúncios e os conteúdos podem ser personalizados com base num perfil. Podem ser adicionados dados adicionais para uma maior personalização dos anúncios e dos conteúdos. A eficácia dos anúncios e dos conteúdos pode ser medida. Podem ser obtidas informações sobre o público que visualizou os anúncios e os conteúdos. Estes dados podem ser usados para desenvolver ou melhorar sistemas, softwares ou a experiência do utilizador.

Ao clicar em "Eu concordo”, permitirá o uso de cookies, identificadores do dispositivo e web beacons mencionados ou outras tecnologias semelhantes. As configurações do navegador do seu dispositivo podem ser alteradas.

Para certos fins, podem ser invocados interesses legítimos ao invés de consentimento. Pode ler mais informação sobre este assunto na nossa Política de Privacidade e Cookies.